Вернуться в каталог

SL-14 DEB

АктивенPO
NORAD 45294·DEBRIS·🇷🇺 Russia

Запущен Aug 15, 1991 с Plesetsk Cosmodrome

Loading…

Ближайшие Пролёты (ближайшие 24 часа)

TLE

СвежийSource: Space-Track

Эпоха: Sep 12, 2026, 18:01 UTC

1 45294U 91056AG  26255.75133777  .00000751  00000-0  17902-2 0  9999
2 45294  82.5643  73.8429 0013383 233.4871 126.5023 13.21708541315339

Отслеживайте SL-14 DEB в реальном времени с AllMySat

Download on the App Store